This is the latest recevied weather packets stored in our database for station/object JG6YPS-13. If no packets are shown the sender has not sent any weather packets the latest 10 day(s).
| Time | Temp. | Humidity | Pressure | Rain* | Wind** | Luminosity | Snow |
|---|---|---|---|---|---|---|---|
| 1777781382 | 18.33° C | 90% | 1006.3 hPa | 1.78 mm | - | - | - |
| 1777780782 | 18.33° C | 90% | 1006.4 hPa | 1.27 mm | - | - | - |
| 1777780183 | 18.33° C | 90% | 1006.5 hPa | 1.78 mm | - | - | - |
| 1777779583 | 18.33° C | 89% | 1006.8 hPa | 0.76 mm | - | - | - |
| 1777778983 | 18.33° C | 90% | 1006.8 hPa | 0.25 mm | - | - | - |
| 1777778384 | 17.78° C | 90% | 1007.1 hPa | 0.25 mm | - | - | - |
| 1777777784 | 17.78° C | 89% | 1007.3 hPa | 0.25 mm | - | - | - |
| 1777777184 | 17.78° C | 90% | 1007.6 hPa | 0.25 mm | - | - | - |
| 1777776585 | 17.78° C | 89% | 1007.7 hPa | 0 mm | - | - | - |
| 1777775985 | 17.78° C | 89% | 1007.8 hPa | 0 mm | - | - | - |
| 1777775385 | 17.22° C | 89% | 1008.1 hPa | 0 mm | - | - | - |
| 1777774786 | 17.78° C | 89% | 1008.2 hPa | 0 mm | - | - | - |
| 1777774186 | 17.78° C | 88% | 1008.3 hPa | 0 mm | - | - | - |
| 1777773586 | 17.22° C | 89% | 1008.3 hPa | 0.25 mm | - | - | - |
| 1777772987 | 17.22° C | 89% | 1008.6 hPa | 0.25 mm | - | - | - |
| 1777772387 | 17.22° C | 89% | 1008.8 hPa | 0.25 mm | - | - | - |
| 1777771788 | 17.22° C | 89% | 1009 hPa | 0.25 mm | - | - | - |
| 1777771188 | 17.22° C | 89% | 1009.1 hPa | 0.51 mm | - | - | - |
| 1777770588 | 16.67° C | 89% | 1009.2 hPa | 0.51 mm | - | - | - |
| 1777769989 | 16.67° C | 89% | 1009.4 hPa | 0.25 mm | - | - | - |
| 1777769389 | 16.67° C | 89% | 1009.5 hPa | 0.51 mm | - | - | - |
| 1777768790 | 16.67° C | 88% | 1009.8 hPa | 0.76 mm | - | - | - |
| 1777768190 | 16.67° C | 88% | 1009.7 hPa | 1.02 mm | - | - | - |
| 1777767591 | 16.67° C | 88% | 1009.6 hPa | 1.02 mm | - | - | - |
| 1777766991 | 16.67° C | 88% | 1009.6 hPa | 1.27 mm | - | - | - |
* Rain latest hour (hover to see other rain measurements)
** Current wind speed in m/s (hover to see current wind gust speed)